Meteo Giornale » Osservazioni meteo Indonesia » Pontianak-Supadio
ore: 12:30 - Osservazioni Meteo Pontianak-Supadio
Lat. 0° 9' S Lon. 109° 24' E Alt. 3 metri s.l.m.
35 °C
Caligine
Temp. 24 Ore
24 °C
36 °C
Sud-Ovest
9.3 Km/h
Dew point 22 °C
Umidità 47 %
Visibilità 3 Km
Il sole sorge alle ore 05:39
Il sole tramonta alle ore 17:45
| Data e Ora | Cielo e Fenomeni | T °C | DP °C | Um. % | Pres. hPa | Vis. km | Vento km/h | |
|---|---|---|---|---|---|---|---|---|
| Oggi h: 12:30 | Caligine | 35 | 22 | 47 | 1010 | 3 | SO 9.3 | |
| Oggi h: 12:00 | Caligine | 33 | 23 | 55 | 1011 | 2 | N 0 | |
| Oggi h: 11:30 | Caligine | 33 | 23 | 55 | 1011 | 2 | N 0 | |
| Oggi h: 11:00 | Caligine | 33 | 24 | 59 | 1012 | 2 | N 3.7 | |
| Oggi h: 10:30 | Caligine | 32 | 24 | 62 | 1012 | 2 | E 9.3 | |
| Oggi h: 10:00 | Caligine | 30 | 24 | 70 | 1013 | 1 | S 11.1 | |
| Oggi h: 09:30 | Caligine | 30 | 24 | 70 | 1013 | 2 | E/SE 9.3 | |
| Oggi h: 09:00 | Caligine | 29 | 24 | 74 | 1013 | 1 | S 9.3 | |
| Oggi h: 08:30 | Caligine | 28 | 24 | 78 | 1013 | 0.4 | S/SE 9.3 | |
| Oggi h: 08:00 | Caligine | 27 | 24 | 83 | 1013 | 0.4 | S/SE 11.1 | |
| Oggi h: 07:30 | Caligine | 26 | 24 | 88 | 1013 | 0.4 | S/SE 7.4 | |
| Oggi h: 07:00 | Caligine | 25 | 24 | 94 | 1012 | 0.4 | S/SE 7.4 | |
| Oggi h: 06:30 | Nebbia | 24 | 24 | 100 | 1012 | 0.5 | N 0 | |
| Oggi h: 06:00 | Caligine | 24 | 24 | 100 | 1012 | 0.5 | N 0 | |
| Oggi h: 05:30 | Caligine | 25 | 24 | 94 | 1012 | 0.8 | N 3.7 | |
| Oggi h: 05:00 | Caligine | 24 | 24 | 100 | 1012 | 1 | N 0 | |
| Oggi h: 04:30 | Foschia | 24 | 24 | 100 | 1011 | 1 | N 1.8 | |
| Oggi h: 04:00 | Foschia | 25 | 24 | 94 | 1011 | 1 | N 5.5 | |
| Oggi h: 03:30 | Foschia | 25 | 24 | 94 | 1011 | 1 | S 7.4 | |
| Oggi h: 03:00 | Foschia | 25 | 24 | 94 | 1011 | 2 | S 13 | |
| Oggi h: 02:30 | Foschia | 26 | 25 | 94 | 1011 | 1 | S 13 | |
| Oggi h: 02:00 | Foschia | 26 | 25 | 94 | 1011 | 2 | SE 7.4 | |
| Oggi h: 01:30 | Foschia | 26 | 25 | 94 | 1011 | 3 | N 3.7 | |
| Oggi h: 01:00 | Foschia | 26 | 25 | 94 | 1011 | 2 | N 3.7 | |
| Oggi h: 00:30 | Foschia | 25 | 25 | 100 | 1011 | 2 | N 1.8 | |
| Oggi h: 00:00 | Caligine | 26 | 25 | 94 | 1011 | 2 | S 7.4 | |
| Ieri h: 23:30 | Caligine | 26 | 25 | 94 | 1012 | 2 | N 5.5 | |
| Ieri h: 23:00 | Caligine | 25 | 25 | 100 | 1012 | 2 | N 3.7 | |
| Ieri h: 22:30 | Caligine | 26 | 25 | 94 | 1012 | 3 | N 5.5 | |
| Ieri h: 22:00 | Caligine | 26 | 25 | 94 | 1011 | 3 | S/SE 11.1 | |
| Ieri h: 21:30 | Caligine | 26 | 25 | 94 | 1012 | 2 | N 5.5 | |
| Ieri h: 21:00 | Caligine | 26 | 25 | 94 | 1012 | 2 | N 5.5 | |
| Ieri h: 20:30 | Caligine | 26 | 24 | 88 | 1012 | 2 | N 5.5 | |
| Ieri h: 20:00 | Caligine | 26 | 24 | 88 | 1011 | 2 | S/SO 7.4 | |
| Ieri h: 19:30 | Caligine | 27 | 24 | 83 | 1011 | 2 | N 3.7 | |
| Ieri h: 19:00 | Caligine | 27 | 24 | 83 | 1011 | 2 | SO 7.4 | |
| Ieri h: 18:30 | Caligine | 28 | 24 | 78 | 1010 | 2 | S/SO 13 | |
| Ieri h: 18:00 | Caligine | 29 | 24 | 74 | 1010 | 2 | S/SO 13 | |
| Ieri h: 17:30 | Caligine | 30 | 24 | 70 | 1010 | 2 | S/SO 13 | |
| Ieri h: 17:00 | Caligine | 31 | 25 | 70 | 1009 | 2 | SO 14.8 | |
| Ieri h: 16:30 | Caligine | 32 | 24 | 62 | 1009 | 2 | SO 20.3 | |
| Ieri h: 16:00 | Caligine | 33 | 23 | 55 | 1009 | 4 | SO 18.5 | |
| Ieri h: 15:30 | Caligine | 34 | 23 | 52 | 1009 | 4 | SO 18.5 | |
| Ieri h: 15:00 | Caligine | 35 | 23 | 49 | 1009 | 4 | SO 16.7 | |
| Ieri h: 14:30 | Caligine | 35 | 21 | 44 | 1009 | 5 | S 14.8 | |
| Ieri h: 14:00 | Caligine | 36 | 20 | 39 | 1009 | 5 | S/SO 14.8 | |
| Ieri h: 13:30 | Caligine | 36 | 21 | 41 | 1010 | 5 | S/SO 14.8 | |
| Ieri h: 13:00 | Caligine | 35 | 23 | 49 | 1010 | 4 | S 16.7 | |



